<?xml version="1.0" encoding="UTF-8"?>
<gpx
version="1.1"
creator="Kashmir3D 9.350 - http://www.kashmir3d.com"
xmlns:xsi="http://www.w3.org/2001/XMLSchema-instance"
xmlns="http://www.topografix.com/GPX/1/1"
xmlns:kashmir3d="http://www.kashmir3d.com/namespace/kashmir3d"
xsi:schemaLocation="http://www.topografix.com/GPX/1/1 http://www.topografix.com/GPX/1/1/gpx.xsd
	http://www.kashmir3d.com/namespace/kashmir3d http://www.kashmir3d.com/namespace/kashmir3d.xsd">
<trk>
 <name>NAKAYAMA.KML(中山)</name>
 <number>1</number>
 <extensions>
 <kashmir3d:line_color>0000ff</kashmir3d:line_color>
 <kashmir3d:line_size>3</kashmir3d:line_size>
 <kashmir3d:line_style>1</kashmir3d:line_style>
 <kashmir3d:icon>901001</kashmir3d:icon>
 </extensions>
<trkseg>
<trkpt lat="34.819477" lon="135.368880">
 <ele>62</ele>
 <time>2020-03-24T13:57:43Z</time>
</trkpt>
<trkpt lat="34.819623" lon="135.368870">
 <ele>61.9</ele>
 <time>2020-03-24T13:57:43Z</time>
</trkpt>
<trkpt lat="34.819794" lon="135.368827">
 <ele>62.2</ele>
 <time>2020-03-24T13:57:43Z</time>
</trkpt>
<trkpt lat="34.820112" lon="135.368784">
 <ele>63.1</ele>
 <time>2020-03-24T13:57:43Z</time>
</trkpt>
<trkpt lat="34.820249" lon="135.368784">
 <ele>63.6</ele>
 <time>2020-03-24T13:57:43Z</time>
</trkpt>
<trkpt lat="34.820215" lon="135.368526">
 <ele>63.6</ele>
 <time>2020-03-24T13:57:44Z</time>
</trkpt>
<trkpt lat="34.820095" lon="135.368194">
 <ele>63.1</ele>
 <time>2020-03-24T13:57:44Z</time>
</trkpt>
<trkpt lat="34.820035" lon="135.367872">
 <ele>62.8</ele>
 <time>2020-03-24T13:57:44Z</time>
</trkpt>
<trkpt lat="34.819966" lon="135.367571">
 <ele>62.1</ele>
 <time>2020-03-24T13:57:44Z</time>
</trkpt>
<trkpt lat="34.819923" lon="135.367346">
 <ele>62.3</ele>
 <time>2020-03-24T13:57:44Z</time>
</trkpt>
<trkpt lat="34.819949" lon="135.367099">
 <ele>63.2</ele>
 <time>2020-03-24T13:57:44Z</time>
</trkpt>
<trkpt lat="34.819966" lon="135.366906">
 <ele>63.7</ele>
 <time>2020-03-24T13:57:44Z</time>
</trkpt>
<trkpt lat="34.819940" lon="135.366681">
 <ele>63.2</ele>
 <time>2020-03-24T13:57:44Z</time>
</trkpt>
<trkpt lat="34.819940" lon="135.366466">
 <ele>63.8</ele>
 <time>2020-03-24T13:57:44Z</time>
</trkpt>
<trkpt lat="34.820155" lon="135.366380">
 <ele>65.4</ele>
 <time>2020-03-24T13:57:44Z</time>
</trkpt>
<trkpt lat="34.820292" lon="135.366338">
 <ele>67.3</ele>
 <time>2020-03-24T13:57:45Z</time>
</trkpt>
<trkpt lat="34.820430" lon="135.366305">
 <ele>69.8</ele>
 <time>2020-03-24T13:57:45Z</time>
</trkpt>
<trkpt lat="34.820524" lon="135.366273">
 <ele>70.8</ele>
 <time>2020-03-24T13:57:45Z</time>
</trkpt>
<trkpt lat="34.820610" lon="135.366252">
 <ele>72.1</ele>
 <time>2020-03-24T13:57:45Z</time>
</trkpt>
<trkpt lat="34.820687" lon="135.366220">
 <ele>72.5</ele>
 <time>2020-03-24T13:57:45Z</time>
</trkpt>
<trkpt lat="34.820781" lon="135.366241">
 <ele>74.2</ele>
 <time>2020-03-24T13:57:45Z</time>
</trkpt>
<trkpt lat="34.820850" lon="135.366241">
 <ele>75.4</ele>
 <time>2020-03-24T13:57:45Z</time>
</trkpt>
<trkpt lat="34.820944" lon="135.366220">
 <ele>76.2</ele>
 <time>2020-03-24T13:57:45Z</time>
</trkpt>
<trkpt lat="34.821047" lon="135.366241">
 <ele>78.6</ele>
 <time>2020-03-24T13:57:45Z</time>
</trkpt>
<trkpt lat="34.821116" lon="135.366338">
 <ele>81.6</ele>
 <time>2020-03-24T13:57:46Z</time>
</trkpt>
<trkpt lat="34.821047" lon="135.366509">
 <ele>82.8</ele>
 <time>2020-03-24T13:57:46Z</time>
</trkpt>
<trkpt lat="34.821039" lon="135.366649">
 <ele>83.9</ele>
 <time>2020-03-24T13:57:46Z</time>
</trkpt>
<trkpt lat="34.821090" lon="135.366767">
 <ele>84.4</ele>
 <time>2020-03-24T13:57:46Z</time>
</trkpt>
<trkpt lat="34.821211" lon="135.366788">
 <ele>86.4</ele>
 <time>2020-03-24T13:57:46Z</time>
</trkpt>
<trkpt lat="34.821305" lon="135.366767">
 <ele>88</ele>
 <time>2020-03-24T13:57:46Z</time>
</trkpt>
<trkpt lat="34.821374" lon="135.366767">
 <ele>89.7</ele>
 <time>2020-03-24T13:57:46Z</time>
</trkpt>
<trkpt lat="34.821511" lon="135.366863">
 <ele>91.9</ele>
 <time>2020-03-24T13:57:46Z</time>
</trkpt>
<trkpt lat="34.821640" lon="135.367003">
 <ele>95.2</ele>
 <time>2020-03-24T13:57:46Z</time>
</trkpt>
<trkpt lat="34.821786" lon="135.367099">
 <ele>97.6</ele>
 <time>2020-03-24T13:57:46Z</time>
</trkpt>
<trkpt lat="34.822035" lon="135.367110">
 <ele>102.1</ele>
 <time>2020-03-24T13:57:47Z</time>
</trkpt>
<trkpt lat="34.822180" lon="135.367110">
 <ele>104.2</ele>
 <time>2020-03-24T13:57:47Z</time>
</trkpt>
<trkpt lat="34.822309" lon="135.367035">
 <ele>106.2</ele>
 <time>2020-03-24T13:57:47Z</time>
</trkpt>
<trkpt lat="34.822395" lon="135.366799">
 <ele>106.8</ele>
 <time>2020-03-24T13:57:47Z</time>
</trkpt>
<trkpt lat="34.822515" lon="135.366509">
 <ele>106.5</ele>
 <time>2020-03-24T13:57:47Z</time>
</trkpt>
<trkpt lat="34.822618" lon="135.366380">
 <ele>106.3</ele>
 <time>2020-03-24T13:57:47Z</time>
</trkpt>
<trkpt lat="34.822738" lon="135.366316">
 <ele>109.7</ele>
 <time>2020-03-24T13:57:47Z</time>
</trkpt>
<trkpt lat="34.822824" lon="135.366284">
 <ele>115.1</ele>
 <time>2020-03-24T13:57:47Z</time>
</trkpt>
<trkpt lat="34.822927" lon="135.366262">
 <ele>117.2</ele>
 <time>2020-03-24T13:57:47Z</time>
</trkpt>
<trkpt lat="34.822996" lon="135.366305">
 <ele>119.3</ele>
 <time>2020-03-24T13:57:47Z</time>
</trkpt>
<trkpt lat="34.823065" lon="135.366413">
 <ele>123.1</ele>
 <time>2020-03-24T13:57:48Z</time>
</trkpt>
<trkpt lat="34.823142" lon="135.366456">
 <ele>126.8</ele>
 <time>2020-03-24T13:57:48Z</time>
</trkpt>
<trkpt lat="34.823219" lon="135.366402">
 <ele>126.7</ele>
 <time>2020-03-24T13:57:48Z</time>
</trkpt>
<trkpt lat="34.823331" lon="135.366413">
 <ele>129.2</ele>
 <time>2020-03-24T13:57:48Z</time>
</trkpt>
<trkpt lat="34.823365" lon="135.366434">
 <ele>130</ele>
 <time>2020-03-24T13:57:48Z</time>
</trkpt>
<trkpt lat="34.823425" lon="135.366434">
 <ele>131.4</ele>
 <time>2020-03-24T13:57:48Z</time>
</trkpt>
<trkpt lat="34.823502" lon="135.366413">
 <ele>132.9</ele>
 <time>2020-03-24T13:57:48Z</time>
</trkpt>
<trkpt lat="34.823614" lon="135.366423">
 <ele>134.3</ele>
 <time>2020-03-24T13:57:48Z</time>
</trkpt>
<trkpt lat="34.823725" lon="135.366423">
 <ele>136.7</ele>
 <time>2020-03-24T13:57:48Z</time>
</trkpt>
<trkpt lat="34.823803" lon="135.366370">
 <ele>137.6</ele>
 <time>2020-03-24T13:57:48Z</time>
</trkpt>
<trkpt lat="34.823880" lon="135.366348">
 <ele>139.8</ele>
 <time>2020-03-24T13:57:49Z</time>
</trkpt>
<trkpt lat="34.823991" lon="135.366295">
 <ele>141.5</ele>
 <time>2020-03-24T13:57:49Z</time>
</trkpt>
<trkpt lat="34.824060" lon="135.366273">
 <ele>143.1</ele>
 <time>2020-03-24T13:57:49Z</time>
</trkpt>
<trkpt lat="34.824197" lon="135.366091">
 <ele>145.2</ele>
 <time>2020-03-24T13:57:49Z</time>
</trkpt>
<trkpt lat="34.824283" lon="135.365994">
 <ele>146.4</ele>
 <time>2020-03-24T13:57:49Z</time>
</trkpt>
<trkpt lat="34.824300" lon="135.365919">
 <ele>146.6</ele>
 <time>2020-03-24T13:57:49Z</time>
</trkpt>
<trkpt lat="34.824300" lon="135.365844">
 <ele>146.2</ele>
 <time>2020-03-24T13:57:49Z</time>
</trkpt>
<trkpt lat="34.824361" lon="135.365511">
 <ele>148.1</ele>
 <time>2020-03-24T13:57:49Z</time>
</trkpt>
<trkpt lat="34.824403" lon="135.365436">
 <ele>149.4</ele>
 <time>2020-03-24T13:57:49Z</time>
</trkpt>
<trkpt lat="34.824403" lon="135.365350">
 <ele>150.5</ele>
 <time>2020-03-24T13:57:49Z</time>
</trkpt>
<trkpt lat="34.824472" lon="135.365275">
 <ele>152.2</ele>
 <time>2020-03-24T13:57:50Z</time>
</trkpt>
<trkpt lat="34.824567" lon="135.365222">
 <ele>152.8</ele>
 <time>2020-03-24T13:57:50Z</time>
</trkpt>
<trkpt lat="34.824644" lon="135.365200">
 <ele>152.7</ele>
 <time>2020-03-24T13:57:50Z</time>
</trkpt>
<trkpt lat="34.824755" lon="135.365125">
 <ele>155.1</ele>
 <time>2020-03-24T13:57:50Z</time>
</trkpt>
<trkpt lat="34.824893" lon="135.365061">
 <ele>157.8</ele>
 <time>2020-03-24T13:57:50Z</time>
</trkpt>
<trkpt lat="34.824970" lon="135.364986">
 <ele>159.5</ele>
 <time>2020-03-24T13:57:50Z</time>
</trkpt>
<trkpt lat="34.825056" lon="135.364943">
 <ele>161.8</ele>
 <time>2020-03-24T13:57:50Z</time>
</trkpt>
<trkpt lat="34.825167" lon="135.364921">
 <ele>163.2</ele>
 <time>2020-03-24T13:57:50Z</time>
</trkpt>
<trkpt lat="34.825245" lon="135.364921">
 <ele>163.6</ele>
 <time>2020-03-24T13:57:50Z</time>
</trkpt>
<trkpt lat="34.825330" lon="135.364900">
 <ele>166</ele>
 <time>2020-03-24T13:57:51Z</time>
</trkpt>
<trkpt lat="34.825459" lon="135.364846">
 <ele>168.6</ele>
 <time>2020-03-24T13:57:51Z</time>
</trkpt>
<trkpt lat="34.825545" lon="135.364771">
 <ele>171.2</ele>
 <time>2020-03-24T13:57:51Z</time>
</trkpt>
<trkpt lat="34.825639" lon="135.364642">
 <ele>171.6</ele>
 <time>2020-03-24T13:57:51Z</time>
</trkpt>
<trkpt lat="34.825734" lon="135.364524">
 <ele>171.1</ele>
 <time>2020-03-24T13:57:51Z</time>
</trkpt>
<trkpt lat="34.825785" lon="135.364428">
 <ele>170.6</ele>
 <time>2020-03-24T13:57:51Z</time>
</trkpt>
<trkpt lat="34.825794" lon="135.364353">
 <ele>170.5</ele>
 <time>2020-03-24T13:57:51Z</time>
</trkpt>
<trkpt lat="34.825777" lon="135.364213">
 <ele>168.9</ele>
 <time>2020-03-24T13:57:51Z</time>
</trkpt>
<trkpt lat="34.825768" lon="135.364138">
 <ele>168.4</ele>
 <time>2020-03-24T13:57:51Z</time>
</trkpt>
<trkpt lat="34.825760" lon="135.364052">
 <ele>167.8</ele>
 <time>2020-03-24T13:57:51Z</time>
</trkpt>
<trkpt lat="34.825760" lon="135.363934">
 <ele>168.4</ele>
 <time>2020-03-24T13:57:52Z</time>
</trkpt>
<trkpt lat="34.825785" lon="135.363848">
 <ele>169.8</ele>
 <time>2020-03-24T13:57:52Z</time>
</trkpt>
<trkpt lat="34.825854" lon="135.363806">
 <ele>169.6</ele>
 <time>2020-03-24T13:57:52Z</time>
</trkpt>
<trkpt lat="34.825966" lon="135.363763">
 <ele>170.5</ele>
 <time>2020-03-24T13:57:52Z</time>
</trkpt>
<trkpt lat="34.826060" lon="135.363741">
 <ele>172.4</ele>
 <time>2020-03-24T13:57:52Z</time>
</trkpt>
<trkpt lat="34.826180" lon="135.363655">
 <ele>171.6</ele>
 <time>2020-03-24T13:57:52Z</time>
</trkpt>
<trkpt lat="34.826257" lon="135.363602">
 <ele>171.1</ele>
 <time>2020-03-24T13:57:52Z</time>
</trkpt>
<trkpt lat="34.826378" lon="135.363494">
 <ele>172.3</ele>
 <time>2020-03-24T13:57:52Z</time>
</trkpt>
<trkpt lat="34.826429" lon="135.363430">
 <ele>173.2</ele>
 <time>2020-03-24T13:57:52Z</time>
</trkpt>
<trkpt lat="34.826438" lon="135.363366">
 <ele>172.9</ele>
 <time>2020-03-24T13:57:52Z</time>
</trkpt>
<trkpt lat="34.826438" lon="135.363215">
 <ele>172.1</ele>
 <time>2020-03-24T13:57:53Z</time>
</trkpt>
<trkpt lat="34.826438" lon="135.363151">
 <ele>172.4</ele>
 <time>2020-03-24T13:57:53Z</time>
</trkpt>
<trkpt lat="34.826515" lon="135.363076">
 <ele>170.1</ele>
 <time>2020-03-24T13:57:53Z</time>
</trkpt>
<trkpt lat="34.826575" lon="135.363033">
 <ele>168.4</ele>
 <time>2020-03-24T13:57:53Z</time>
</trkpt>
<trkpt lat="34.826661" lon="135.363022">
 <ele>168.4</ele>
 <time>2020-03-24T13:57:53Z</time>
</trkpt>
<trkpt lat="34.826781" lon="135.362969">
 <ele>169.1</ele>
 <time>2020-03-24T13:57:53Z</time>
</trkpt>
<trkpt lat="34.826875" lon="135.362894">
 <ele>167.3</ele>
 <time>2020-03-24T13:57:53Z</time>
</trkpt>
<trkpt lat="34.826978" lon="135.362808">
 <ele>167.4</ele>
 <time>2020-03-24T13:57:53Z</time>
</trkpt>
<trkpt lat="34.827116" lon="135.362679">
 <ele>170.5</ele>
 <time>2020-03-24T13:57:53Z</time>
</trkpt>
<trkpt lat="34.827167" lon="135.362582">
 <ele>173.2</ele>
 <time>2020-03-24T13:57:54Z</time>
</trkpt>
<trkpt lat="34.827210" lon="135.362411">
 <ele>176.7</ele>
 <time>2020-03-24T13:57:54Z</time>
</trkpt>
<trkpt lat="34.827219" lon="135.362336">
 <ele>177.4</ele>
 <time>2020-03-24T13:57:54Z</time>
</trkpt>
<trkpt lat="34.827236" lon="135.362271">
 <ele>179</ele>
 <time>2020-03-24T13:57:54Z</time>
</trkpt>
<trkpt lat="34.827382" lon="135.362153">
 <ele>180.2</ele>
 <time>2020-03-24T13:57:54Z</time>
</trkpt>
<trkpt lat="34.827511" lon="135.362067">
 <ele>182.9</ele>
 <time>2020-03-24T13:57:54Z</time>
</trkpt>
<trkpt lat="34.827656" lon="135.362014">
 <ele>184.3</ele>
 <time>2020-03-24T13:57:54Z</time>
</trkpt>
<trkpt lat="34.827794" lon="135.361992">
 <ele>185.1</ele>
 <time>2020-03-24T13:57:54Z</time>
</trkpt>
<trkpt lat="34.827897" lon="135.361971">
 <ele>187</ele>
 <time>2020-03-24T13:57:54Z</time>
</trkpt>
<trkpt lat="34.828051" lon="135.361939">
 <ele>188.8</ele>
 <time>2020-03-24T13:57:54Z</time>
</trkpt>
<trkpt lat="34.828214" lon="135.361853">
 <ele>191.9</ele>
 <time>2020-03-24T13:57:55Z</time>
</trkpt>
<trkpt lat="34.828309" lon="135.361831">
 <ele>193.1</ele>
 <time>2020-03-24T13:57:55Z</time>
</trkpt>
<trkpt lat="34.828377" lon="135.361831">
 <ele>194.6</ele>
 <time>2020-03-24T13:57:55Z</time>
</trkpt>
<trkpt lat="34.828429" lon="135.361842">
 <ele>195.8</ele>
 <time>2020-03-24T13:57:55Z</time>
</trkpt>
<trkpt lat="34.828489" lon="135.361788">
 <ele>195.5</ele>
 <time>2020-03-24T13:57:55Z</time>
</trkpt>
<trkpt lat="34.828592" lon="135.361563">
 <ele>196.3</ele>
 <time>2020-03-24T13:57:55Z</time>
</trkpt>
<trkpt lat="34.828652" lon="135.361392">
 <ele>197.6</ele>
 <time>2020-03-24T13:57:55Z</time>
</trkpt>
<trkpt lat="34.828781" lon="135.361220">
 <ele>202.8</ele>
 <time>2020-03-24T13:57:55Z</time>
</trkpt>
<trkpt lat="34.828875" lon="135.361113">
 <ele>204.6</ele>
 <time>2020-03-24T13:57:55Z</time>
</trkpt>
<trkpt lat="34.828961" lon="135.361037">
 <ele>207.8</ele>
 <time>2020-03-24T13:57:56Z</time>
</trkpt>
<trkpt lat="34.829073" lon="135.361016">
 <ele>209.4</ele>
 <time>2020-03-24T13:57:56Z</time>
</trkpt>
<trkpt lat="34.829184" lon="135.360930">
 <ele>214</ele>
 <time>2020-03-24T13:57:56Z</time>
</trkpt>
<trkpt lat="34.829253" lon="135.360877">
 <ele>216.9</ele>
 <time>2020-03-24T13:57:56Z</time>
</trkpt>
<trkpt lat="34.829382" lon="135.360791">
 <ele>219.9</ele>
 <time>2020-03-24T13:57:56Z</time>
</trkpt>
<trkpt lat="34.829528" lon="135.360726">
 <ele>223.7</ele>
 <time>2020-03-24T13:57:56Z</time>
</trkpt>
<trkpt lat="34.829622" lon="135.360683">
 <ele>226.2</ele>
 <time>2020-03-24T13:57:56Z</time>
</trkpt>
<trkpt lat="34.829725" lon="135.360598">
 <ele>228.7</ele>
 <time>2020-03-24T13:57:56Z</time>
</trkpt>
<trkpt lat="34.829802" lon="135.360501">
 <ele>231.6</ele>
 <time>2020-03-24T13:57:56Z</time>
</trkpt>
<trkpt lat="34.829914" lon="135.360447">
 <ele>233.3</ele>
 <time>2020-03-24T13:57:56Z</time>
</trkpt>
<trkpt lat="34.829922" lon="135.360372">
 <ele>235</ele>
 <time>2020-03-24T13:57:57Z</time>
</trkpt>
<trkpt lat="34.829922" lon="135.360286">
 <ele>237</ele>
 <time>2020-03-24T13:57:57Z</time>
</trkpt>
<trkpt lat="34.829897" lon="135.360190">
 <ele>239.2</ele>
 <time>2020-03-24T13:57:57Z</time>
</trkpt>
<trkpt lat="34.830025" lon="135.360126">
 <ele>239.8</ele>
 <time>2020-03-24T13:57:57Z</time>
</trkpt>
<trkpt lat="34.830206" lon="135.360126">
 <ele>237.9</ele>
 <time>2020-03-24T13:57:57Z</time>
</trkpt>
<trkpt lat="34.830283" lon="135.360126">
 <ele>239.9</ele>
 <time>2020-03-24T13:57:57Z</time>
</trkpt>
<trkpt lat="34.830369" lon="135.360104">
 <ele>243.2</ele>
 <time>2020-03-24T13:57:57Z</time>
</trkpt>
<trkpt lat="34.830446" lon="135.360126">
 <ele>245.9</ele>
 <time>2020-03-24T13:57:57Z</time>
</trkpt>
<trkpt lat="34.830532" lon="135.360050">
 <ele>248.7</ele>
 <time>2020-03-24T13:57:57Z</time>
</trkpt>
<trkpt lat="34.830626" lon="135.359975">
 <ele>251.8</ele>
 <time>2020-03-24T13:57:57Z</time>
</trkpt>
<trkpt lat="34.830789" lon="135.359868">
 <ele>255.5</ele>
 <time>2020-03-24T13:57:58Z</time>
</trkpt>
<trkpt lat="34.830952" lon="135.359825">
 <ele>256.3</ele>
 <time>2020-03-24T13:57:58Z</time>
</trkpt>
<trkpt lat="34.831038" lon="135.359825">
 <ele>256</ele>
 <time>2020-03-24T13:57:58Z</time>
</trkpt>
<trkpt lat="34.831167" lon="135.359825">
 <ele>255.7</ele>
 <time>2020-03-24T13:57:58Z</time>
</trkpt>
<trkpt lat="34.831253" lon="135.359879">
 <ele>256.2</ele>
 <time>2020-03-24T13:57:58Z</time>
</trkpt>
<trkpt lat="34.831382" lon="135.359922">
 <ele>256.9</ele>
 <time>2020-03-24T13:57:58Z</time>
</trkpt>
<trkpt lat="34.831459" lon="135.359997">
 <ele>258.7</ele>
 <time>2020-03-24T13:57:58Z</time>
</trkpt>
<trkpt lat="34.831536" lon="135.360083">
 <ele>261.1</ele>
 <time>2020-03-24T13:57:58Z</time>
</trkpt>
<trkpt lat="34.831665" lon="135.360126">
 <ele>263.4</ele>
 <time>2020-03-24T13:57:58Z</time>
</trkpt>
<trkpt lat="34.831768" lon="135.360179">
 <ele>266.3</ele>
 <time>2020-03-24T13:57:59Z</time>
</trkpt>
<trkpt lat="34.831914" lon="135.360276">
 <ele>268.6</ele>
 <time>2020-03-24T13:57:59Z</time>
</trkpt>
<trkpt lat="34.831999" lon="135.360437">
 <ele>268.4</ele>
 <time>2020-03-24T13:57:59Z</time>
</trkpt>
<trkpt lat="34.832068" lon="135.360565">
 <ele>268.8</ele>
 <time>2020-03-24T13:57:59Z</time>
</trkpt>
<trkpt lat="34.832128" lon="135.360619">
 <ele>272.3</ele>
 <time>2020-03-24T13:57:59Z</time>
</trkpt>
<trkpt lat="34.832240" lon="135.360619">
 <ele>274.8</ele>
 <time>2020-03-24T13:57:59Z</time>
</trkpt>
<trkpt lat="34.832360" lon="135.360608">
 <ele>273.3</ele>
 <time>2020-03-24T13:57:59Z</time>
</trkpt>
<trkpt lat="34.832437" lon="135.360598">
 <ele>272.4</ele>
 <time>2020-03-24T13:57:59Z</time>
</trkpt>
<trkpt lat="34.832540" lon="135.360598">
 <ele>273.9</ele>
 <time>2020-03-24T13:57:59Z</time>
</trkpt>
<trkpt lat="34.832626" lon="135.360630">
 <ele>277.8</ele>
 <time>2020-03-24T13:57:59Z</time>
</trkpt>
<trkpt lat="34.832720" lon="135.360544">
 <ele>280</ele>
 <time>2020-03-24T13:58:00Z</time>
</trkpt>
<trkpt lat="34.832798" lon="135.360458">
 <ele>283.1</ele>
 <time>2020-03-24T13:58:00Z</time>
</trkpt>
<trkpt lat="34.832858" lon="135.360404">
 <ele>284.5</ele>
 <time>2020-03-24T13:58:00Z</time>
</trkpt>
<trkpt lat="34.832935" lon="135.360329">
 <ele>286.7</ele>
 <time>2020-03-24T13:58:00Z</time>
</trkpt>
<trkpt lat="34.833012" lon="135.360233">
 <ele>288.4</ele>
 <time>2020-03-24T13:58:00Z</time>
</trkpt>
<trkpt lat="34.833064" lon="135.360211">
 <ele>288.5</ele>
 <time>2020-03-24T13:58:00Z</time>
</trkpt>
<trkpt lat="34.833184" lon="135.360136">
 <ele>290.4</ele>
 <time>2020-03-24T13:58:00Z</time>
</trkpt>
<trkpt lat="34.833296" lon="135.360083">
 <ele>293.2</ele>
 <time>2020-03-24T13:58:00Z</time>
</trkpt>
<trkpt lat="34.833441" lon="135.359997">
 <ele>289.6</ele>
 <time>2020-03-24T13:58:00Z</time>
</trkpt>
<trkpt lat="34.833570" lon="135.359932">
 <ele>290.7</ele>
 <time>2020-03-24T13:58:01Z</time>
</trkpt>
<trkpt lat="34.833673" lon="135.359847">
 <ele>290.8</ele>
 <time>2020-03-24T13:58:01Z</time>
</trkpt>
<trkpt lat="34.833793" lon="135.359761">
 <ele>290.4</ele>
 <time>2020-03-24T13:58:01Z</time>
</trkpt>
<trkpt lat="34.833991" lon="135.359653">
 <ele>291.9</ele>
 <time>2020-03-24T13:58:01Z</time>
</trkpt>
<trkpt lat="34.834128" lon="135.359546">
 <ele>290.5</ele>
 <time>2020-03-24T13:58:01Z</time>
</trkpt>
<trkpt lat="34.834274" lon="135.359460">
 <ele>290.9</ele>
 <time>2020-03-24T13:58:01Z</time>
</trkpt>
<trkpt lat="34.834368" lon="135.359450">
 <ele>290.7</ele>
 <time>2020-03-24T13:58:01Z</time>
</trkpt>
<trkpt lat="34.834480" lon="135.359450">
 <ele>292.4</ele>
 <time>2020-03-24T13:58:01Z</time>
</trkpt>
<trkpt lat="34.834609" lon="135.359396">
 <ele>293.7</ele>
 <time>2020-03-24T13:58:01Z</time>
</trkpt>
<trkpt lat="34.834780" lon="135.359342">
 <ele>294</ele>
 <time>2020-03-24T13:58:01Z</time>
</trkpt>
<trkpt lat="34.834875" lon="135.359278">
 <ele>294.3</ele>
 <time>2020-03-24T13:58:02Z</time>
</trkpt>
<trkpt lat="34.835029" lon="135.359138">
 <ele>299.3</ele>
 <time>2020-03-24T13:58:02Z</time>
</trkpt>
<trkpt lat="34.835072" lon="135.359031">
 <ele>301.2</ele>
 <time>2020-03-24T13:58:02Z</time>
</trkpt>
<trkpt lat="34.835235" lon="135.358924">
 <ele>303.4</ele>
 <time>2020-03-24T13:58:02Z</time>
</trkpt>
<trkpt lat="34.835390" lon="135.358913">
 <ele>307.6</ele>
 <time>2020-03-24T13:58:02Z</time>
</trkpt>
<trkpt lat="34.835476" lon="135.358881">
 <ele>310.2</ele>
 <time>2020-03-24T13:58:02Z</time>
</trkpt>
<trkpt lat="34.835647" lon="135.358881">
 <ele>317.3</ele>
 <time>2020-03-24T13:58:02Z</time>
</trkpt>
<trkpt lat="34.835716" lon="135.358881">
 <ele>321.4</ele>
 <time>2020-03-24T13:58:02Z</time>
</trkpt>
<trkpt lat="34.835879" lon="135.358870">
 <ele>329.1</ele>
 <time>2020-03-24T13:58:02Z</time>
</trkpt>
<trkpt lat="34.836025" lon="135.358827">
 <ele>333.2</ele>
 <time>2020-03-24T13:58:02Z</time>
</trkpt>
<trkpt lat="34.836222" lon="135.358752">
 <ele>333.8</ele>
 <time>2020-03-24T13:58:03Z</time>
</trkpt>
<trkpt lat="34.836394" lon="135.358720">
 <ele>334.2</ele>
 <time>2020-03-24T13:58:03Z</time>
</trkpt>
<trkpt lat="34.836549" lon="135.358613">
 <ele>337.2</ele>
 <time>2020-03-24T13:58:03Z</time>
</trkpt>
<trkpt lat="34.836652" lon="135.358570">
 <ele>340.5</ele>
 <time>2020-03-24T13:58:03Z</time>
</trkpt>
<trkpt lat="34.836729" lon="135.358495">
 <ele>348.2</ele>
 <time>2020-03-24T13:58:03Z</time>
</trkpt>
<trkpt lat="34.836832" lon="135.358345">
 <ele>356</ele>
 <time>2020-03-24T13:58:03Z</time>
</trkpt>
<trkpt lat="34.836883" lon="135.358269">
 <ele>355.8</ele>
 <time>2020-03-24T13:58:03Z</time>
</trkpt>
<trkpt lat="34.836900" lon="135.358184">
 <ele>356.1</ele>
 <time>2020-03-24T13:58:03Z</time>
</trkpt>
<trkpt lat="34.836926" lon="135.358066">
 <ele>352.7</ele>
 <time>2020-03-24T13:58:03Z</time>
</trkpt>
<trkpt lat="34.837141" lon="135.357840">
 <ele>334.2</ele>
 <time>2020-03-24T13:58:04Z</time>
</trkpt>
<trkpt lat="34.837252" lon="135.357733">
 <ele>321.2</ele>
 <time>2020-03-24T13:58:04Z</time>
</trkpt>
<trkpt lat="34.837398" lon="135.357722">
 <ele>317.1</ele>
 <time>2020-03-24T13:58:04Z</time>
</trkpt>
<trkpt lat="34.837475" lon="135.357819">
 <ele>319.8</ele>
 <time>2020-03-24T13:58:04Z</time>
</trkpt>
<trkpt lat="34.837570" lon="135.357851">
 <ele>324.4</ele>
 <time>2020-03-24T13:58:04Z</time>
</trkpt>
<trkpt lat="34.837673" lon="135.357862">
 <ele>329.9</ele>
 <time>2020-03-24T13:58:04Z</time>
</trkpt>
<trkpt lat="34.837819" lon="135.357851">
 <ele>335.3</ele>
 <time>2020-03-24T13:58:04Z</time>
</trkpt>
<trkpt lat="34.837999" lon="135.357872">
 <ele>335.2</ele>
 <time>2020-03-24T13:58:04Z</time>
</trkpt>
<trkpt lat="34.838154" lon="135.357797">
 <ele>337.9</ele>
 <time>2020-03-24T13:58:04Z</time>
</trkpt>
<trkpt lat="34.838257" lon="135.357572">
 <ele>341.3</ele>
 <time>2020-03-24T13:58:04Z</time>
</trkpt>
<trkpt lat="34.838334" lon="135.357368">
 <ele>346</ele>
 <time>2020-03-24T13:58:05Z</time>
</trkpt>
<trkpt lat="34.838334" lon="135.357250">
 <ele>349.8</ele>
 <time>2020-03-24T13:58:05Z</time>
</trkpt>
<trkpt lat="34.838334" lon="135.357111">
 <ele>355.5</ele>
 <time>2020-03-24T13:58:05Z</time>
</trkpt>
<trkpt lat="34.838317" lon="135.356832">
 <ele>367.6</ele>
 <time>2020-03-24T13:58:05Z</time>
</trkpt>
<trkpt lat="34.838317" lon="135.356714">
 <ele>368.5</ele>
 <time>2020-03-24T13:58:05Z</time>
</trkpt>
<trkpt lat="34.838351" lon="135.356628">
 <ele>371.4</ele>
 <time>2020-03-24T13:58:05Z</time>
</trkpt>
<trkpt lat="34.838643" lon="135.356456">
 <ele>383.5</ele>
 <time>2020-03-24T13:58:05Z</time>
</trkpt>
<trkpt lat="34.838814" lon="135.356210">
 <ele>391.9</ele>
 <time>2020-03-24T13:58:05Z</time>
</trkpt>
<trkpt lat="34.839038" lon="135.356070">
 <ele>406.2</ele>
 <time>2020-03-24T13:58:05Z</time>
</trkpt>
<trkpt lat="34.839149" lon="135.355973">
 <ele>413.9</ele>
 <time>2020-03-24T13:58:06Z</time>
</trkpt>
<trkpt lat="34.839321" lon="135.355866">
 <ele>425</ele>
 <time>2020-03-24T13:58:06Z</time>
</trkpt>
<trkpt lat="34.839450" lon="135.355791">
 <ele>434</ele>
 <time>2020-03-24T13:58:06Z</time>
</trkpt>
<trkpt lat="34.839604" lon="135.355609">
 <ele>440.4</ele>
 <time>2020-03-24T13:58:06Z</time>
</trkpt>
<trkpt lat="34.839450" lon="135.355791">
 <ele>434</ele>
 <time>2020-03-24T13:58:06Z</time>
</trkpt>
<trkpt lat="34.839321" lon="135.355866">
 <ele>425</ele>
 <time>2020-03-24T13:58:06Z</time>
</trkpt>
<trkpt lat="34.839149" lon="135.355973">
 <ele>413.9</ele>
 <time>2020-03-24T13:58:06Z</time>
</trkpt>
<trkpt lat="34.839038" lon="135.356070">
 <ele>406.2</ele>
 <time>2020-03-24T13:58:06Z</time>
</trkpt>
<trkpt lat="34.838814" lon="135.356210">
 <ele>391.9</ele>
 <time>2020-03-24T13:58:06Z</time>
</trkpt>
<trkpt lat="34.838643" lon="135.356456">
 <ele>383.5</ele>
 <time>2020-03-24T13:58:06Z</time>
</trkpt>
<trkpt lat="34.838351" lon="135.356628">
 <ele>371.4</ele>
 <time>2020-03-24T13:58:07Z</time>
</trkpt>
<trkpt lat="34.838317" lon="135.356714">
 <ele>368.5</ele>
 <time>2020-03-24T13:58:07Z</time>
</trkpt>
<trkpt lat="34.838317" lon="135.356832">
 <ele>367.6</ele>
 <time>2020-03-24T13:58:07Z</time>
</trkpt>
<trkpt lat="34.838334" lon="135.357111">
 <ele>355.5</ele>
 <time>2020-03-24T13:58:07Z</time>
</trkpt>
<trkpt lat="34.838334" lon="135.357250">
 <ele>349.8</ele>
 <time>2020-03-24T13:58:07Z</time>
</trkpt>
<trkpt lat="34.838334" lon="135.357368">
 <ele>346</ele>
 <time>2020-03-24T13:58:07Z</time>
</trkpt>
<trkpt lat="34.838257" lon="135.357572">
 <ele>341.3</ele>
 <time>2020-03-24T13:58:07Z</time>
</trkpt>
<trkpt lat="34.838154" lon="135.357797">
 <ele>337.9</ele>
 <time>2020-03-24T13:58:07Z</time>
</trkpt>
<trkpt lat="34.837999" lon="135.357872">
 <ele>335.2</ele>
 <time>2020-03-24T13:58:07Z</time>
</trkpt>
<trkpt lat="34.837819" lon="135.357851">
 <ele>335.3</ele>
 <time>2020-03-24T13:58:08Z</time>
</trkpt>
<trkpt lat="34.837673" lon="135.357862">
 <ele>329.9</ele>
 <time>2020-03-24T13:58:08Z</time>
</trkpt>
<trkpt lat="34.837570" lon="135.357851">
 <ele>324.4</ele>
 <time>2020-03-24T13:58:08Z</time>
</trkpt>
<trkpt lat="34.837475" lon="135.357819">
 <ele>319.8</ele>
 <time>2020-03-24T13:58:08Z</time>
</trkpt>
<trkpt lat="34.837398" lon="135.357722">
 <ele>317.1</ele>
 <time>2020-03-24T13:58:08Z</time>
</trkpt>
<trkpt lat="34.837252" lon="135.357733">
 <ele>321.2</ele>
 <time>2020-03-24T13:58:08Z</time>
</trkpt>
<trkpt lat="34.837141" lon="135.357840">
 <ele>334.2</ele>
 <time>2020-03-24T13:58:08Z</time>
</trkpt>
<trkpt lat="34.836926" lon="135.358066">
 <ele>352.7</ele>
 <time>2020-03-24T13:58:08Z</time>
</trkpt>
<trkpt lat="34.836900" lon="135.358184">
 <ele>356.1</ele>
 <time>2020-03-24T13:58:08Z</time>
</trkpt>
<trkpt lat="34.836883" lon="135.358269">
 <ele>355.8</ele>
 <time>2020-03-24T13:58:08Z</time>
</trkpt>
<trkpt lat="34.836832" lon="135.358345">
 <ele>356</ele>
 <time>2020-03-24T13:58:09Z</time>
</trkpt>
<trkpt lat="34.836729" lon="135.358495">
 <ele>348.2</ele>
 <time>2020-03-24T13:58:09Z</time>
</trkpt>
<trkpt lat="34.836652" lon="135.358570">
 <ele>340.5</ele>
 <time>2020-03-24T13:58:09Z</time>
</trkpt>
<trkpt lat="34.836549" lon="135.358613">
 <ele>337.2</ele>
 <time>2020-03-24T13:58:09Z</time>
</trkpt>
<trkpt lat="34.836394" lon="135.358720">
 <ele>334.2</ele>
 <time>2020-03-24T13:58:09Z</time>
</trkpt>
<trkpt lat="34.836222" lon="135.358752">
 <ele>333.8</ele>
 <time>2020-03-24T13:58:09Z</time>
</trkpt>
<trkpt lat="34.836025" lon="135.358827">
 <ele>333.2</ele>
 <time>2020-03-24T13:58:09Z</time>
</trkpt>
<trkpt lat="34.835879" lon="135.358870">
 <ele>329.1</ele>
 <time>2020-03-24T13:58:09Z</time>
</trkpt>
<trkpt lat="34.835716" lon="135.358881">
 <ele>321.4</ele>
 <time>2020-03-24T13:58:09Z</time>
</trkpt>
<trkpt lat="34.835647" lon="135.358881">
 <ele>317.3</ele>
 <time>2020-03-24T13:58:10Z</time>
</trkpt>
<trkpt lat="34.835476" lon="135.358881">
 <ele>310.2</ele>
 <time>2020-03-24T13:58:10Z</time>
</trkpt>
<trkpt lat="34.835390" lon="135.358913">
 <ele>307.6</ele>
 <time>2020-03-24T13:58:10Z</time>
</trkpt>
<trkpt lat="34.835235" lon="135.358924">
 <ele>303.4</ele>
 <time>2020-03-24T13:58:10Z</time>
</trkpt>
<trkpt lat="34.835072" lon="135.359031">
 <ele>301.2</ele>
 <time>2020-03-24T13:58:10Z</time>
</trkpt>
<trkpt lat="34.835029" lon="135.359138">
 <ele>299.3</ele>
 <time>2020-03-24T13:58:10Z</time>
</trkpt>
<trkpt lat="34.834875" lon="135.359278">
 <ele>294.3</ele>
 <time>2020-03-24T13:58:10Z</time>
</trkpt>
<trkpt lat="34.834780" lon="135.359342">
 <ele>294</ele>
 <time>2020-03-24T13:58:10Z</time>
</trkpt>
<trkpt lat="34.834609" lon="135.359396">
 <ele>293.7</ele>
 <time>2020-03-24T13:58:10Z</time>
</trkpt>
<trkpt lat="34.834480" lon="135.359450">
 <ele>292.4</ele>
 <time>2020-03-24T13:58:10Z</time>
</trkpt>
<trkpt lat="34.834368" lon="135.359450">
 <ele>290.7</ele>
 <time>2020-03-24T13:58:11Z</time>
</trkpt>
<trkpt lat="34.834274" lon="135.359460">
 <ele>290.9</ele>
 <time>2020-03-24T13:58:11Z</time>
</trkpt>
<trkpt lat="34.834128" lon="135.359546">
 <ele>290.5</ele>
 <time>2020-03-24T13:58:11Z</time>
</trkpt>
<trkpt lat="34.833991" lon="135.359653">
 <ele>291.9</ele>
 <time>2020-03-24T13:58:11Z</time>
</trkpt>
<trkpt lat="34.833793" lon="135.359761">
 <ele>290.4</ele>
 <time>2020-03-24T13:58:11Z</time>
</trkpt>
<trkpt lat="34.833673" lon="135.359847">
 <ele>290.8</ele>
 <time>2020-03-24T13:58:11Z</time>
</trkpt>
<trkpt lat="34.833570" lon="135.359932">
 <ele>290.7</ele>
 <time>2020-03-24T13:58:11Z</time>
</trkpt>
<trkpt lat="34.833441" lon="135.359997">
 <ele>289.6</ele>
 <time>2020-03-24T13:58:11Z</time>
</trkpt>
<trkpt lat="34.833296" lon="135.360083">
 <ele>293.2</ele>
 <time>2020-03-24T13:58:11Z</time>
</trkpt>
<trkpt lat="34.833184" lon="135.360136">
 <ele>290.4</ele>
 <time>2020-03-24T13:58:11Z</time>
</trkpt>
<trkpt lat="34.833064" lon="135.360211">
 <ele>288.5</ele>
 <time>2020-03-24T13:58:12Z</time>
</trkpt>
<trkpt lat="34.833012" lon="135.360233">
 <ele>288.4</ele>
 <time>2020-03-24T13:58:12Z</time>
</trkpt>
<trkpt lat="34.832935" lon="135.360329">
 <ele>286.7</ele>
 <time>2020-03-24T13:58:12Z</time>
</trkpt>
<trkpt lat="34.832858" lon="135.360404">
 <ele>284.5</ele>
 <time>2020-03-24T13:58:12Z</time>
</trkpt>
<trkpt lat="34.832798" lon="135.360458">
 <ele>283.1</ele>
 <time>2020-03-24T13:58:12Z</time>
</trkpt>
<trkpt lat="34.832720" lon="135.360544">
 <ele>280</ele>
 <time>2020-03-24T13:58:12Z</time>
</trkpt>
<trkpt lat="34.832626" lon="135.360630">
 <ele>277.8</ele>
 <time>2020-03-24T13:58:12Z</time>
</trkpt>
<trkpt lat="34.832540" lon="135.360598">
 <ele>273.9</ele>
 <time>2020-03-24T13:58:12Z</time>
</trkpt>
<trkpt lat="34.832437" lon="135.360598">
 <ele>272.4</ele>
 <time>2020-03-24T13:58:12Z</time>
</trkpt>
<trkpt lat="34.832360" lon="135.360608">
 <ele>273.3</ele>
 <time>2020-03-24T13:58:13Z</time>
</trkpt>
<trkpt lat="34.832240" lon="135.360619">
 <ele>274.8</ele>
 <time>2020-03-24T13:58:13Z</time>
</trkpt>
<trkpt lat="34.832128" lon="135.360619">
 <ele>272.3</ele>
 <time>2020-03-24T13:58:13Z</time>
</trkpt>
<trkpt lat="34.832068" lon="135.360565">
 <ele>268.8</ele>
 <time>2020-03-24T13:58:13Z</time>
</trkpt>
<trkpt lat="34.831999" lon="135.360437">
 <ele>268.4</ele>
 <time>2020-03-24T13:58:13Z</time>
</trkpt>
<trkpt lat="34.831914" lon="135.360276">
 <ele>268.6</ele>
 <time>2020-03-24T13:58:13Z</time>
</trkpt>
<trkpt lat="34.831768" lon="135.360179">
 <ele>266.3</ele>
 <time>2020-03-24T13:58:13Z</time>
</trkpt>
<trkpt lat="34.831665" lon="135.360126">
 <ele>263.4</ele>
 <time>2020-03-24T13:58:13Z</time>
</trkpt>
<trkpt lat="34.831536" lon="135.360083">
 <ele>261.1</ele>
 <time>2020-03-24T13:58:13Z</time>
</trkpt>
<trkpt lat="34.831459" lon="135.359997">
 <ele>258.7</ele>
 <time>2020-03-24T13:58:13Z</time>
</trkpt>
<trkpt lat="34.831382" lon="135.359922">
 <ele>256.9</ele>
 <time>2020-03-24T13:58:14Z</time>
</trkpt>
<trkpt lat="34.831253" lon="135.359879">
 <ele>256.2</ele>
 <time>2020-03-24T13:58:14Z</time>
</trkpt>
<trkpt lat="34.831167" lon="135.359825">
 <ele>255.7</ele>
 <time>2020-03-24T13:58:14Z</time>
</trkpt>
<trkpt lat="34.831038" lon="135.359825">
 <ele>256</ele>
 <time>2020-03-24T13:58:14Z</time>
</trkpt>
<trkpt lat="34.830952" lon="135.359825">
 <ele>256.3</ele>
 <time>2020-03-24T13:58:14Z</time>
</trkpt>
<trkpt lat="34.830789" lon="135.359868">
 <ele>255.5</ele>
 <time>2020-03-24T13:58:14Z</time>
</trkpt>
<trkpt lat="34.830626" lon="135.359975">
 <ele>251.8</ele>
 <time>2020-03-24T13:58:14Z</time>
</trkpt>
<trkpt lat="34.830532" lon="135.360050">
 <ele>248.7</ele>
 <time>2020-03-24T13:58:14Z</time>
</trkpt>
<trkpt lat="34.830446" lon="135.360126">
 <ele>245.9</ele>
 <time>2020-03-24T13:58:14Z</time>
</trkpt>
<trkpt lat="34.830369" lon="135.360104">
 <ele>243.2</ele>
 <time>2020-03-24T13:58:15Z</time>
</trkpt>
<trkpt lat="34.830283" lon="135.360126">
 <ele>239.9</ele>
 <time>2020-03-24T13:58:15Z</time>
</trkpt>
<trkpt lat="34.830206" lon="135.360126">
 <ele>237.9</ele>
 <time>2020-03-24T13:58:15Z</time>
</trkpt>
<trkpt lat="34.830025" lon="135.360126">
 <ele>239.8</ele>
 <time>2020-03-24T13:58:15Z</time>
</trkpt>
<trkpt lat="34.829897" lon="135.360190">
 <ele>239.2</ele>
 <time>2020-03-24T13:58:15Z</time>
</trkpt>
<trkpt lat="34.829922" lon="135.360286">
 <ele>237</ele>
 <time>2020-03-24T13:58:15Z</time>
</trkpt>
<trkpt lat="34.829922" lon="135.360372">
 <ele>235</ele>
 <time>2020-03-24T13:58:15Z</time>
</trkpt>
<trkpt lat="34.829914" lon="135.360447">
 <ele>233.3</ele>
 <time>2020-03-24T13:58:15Z</time>
</trkpt>
<trkpt lat="34.829802" lon="135.360501">
 <ele>231.6</ele>
 <time>2020-03-24T13:58:15Z</time>
</trkpt>
<trkpt lat="34.829725" lon="135.360598">
 <ele>228.7</ele>
 <time>2020-03-24T13:58:15Z</time>
</trkpt>
<trkpt lat="34.829622" lon="135.360683">
 <ele>226.2</ele>
 <time>2020-03-24T13:58:16Z</time>
</trkpt>
<trkpt lat="34.829528" lon="135.360726">
 <ele>223.7</ele>
 <time>2020-03-24T13:58:16Z</time>
</trkpt>
<trkpt lat="34.829382" lon="135.360791">
 <ele>219.9</ele>
 <time>2020-03-24T13:58:16Z</time>
</trkpt>
<trkpt lat="34.829253" lon="135.360877">
 <ele>216.9</ele>
 <time>2020-03-24T13:58:16Z</time>
</trkpt>
<trkpt lat="34.829184" lon="135.360930">
 <ele>214</ele>
 <time>2020-03-24T13:58:16Z</time>
</trkpt>
<trkpt lat="34.829073" lon="135.361016">
 <ele>209.4</ele>
 <time>2020-03-24T13:58:16Z</time>
</trkpt>
<trkpt lat="34.828961" lon="135.361037">
 <ele>207.8</ele>
 <time>2020-03-24T13:58:16Z</time>
</trkpt>
<trkpt lat="34.828875" lon="135.361113">
 <ele>204.6</ele>
 <time>2020-03-24T13:58:16Z</time>
</trkpt>
<trkpt lat="34.828781" lon="135.361220">
 <ele>202.8</ele>
 <time>2020-03-24T13:58:16Z</time>
</trkpt>
<trkpt lat="34.828652" lon="135.361392">
 <ele>197.6</ele>
 <time>2020-03-24T13:58:17Z</time>
</trkpt>
<trkpt lat="34.828592" lon="135.361563">
 <ele>196.3</ele>
 <time>2020-03-24T13:58:17Z</time>
</trkpt>
<trkpt lat="34.828489" lon="135.361788">
 <ele>195.5</ele>
 <time>2020-03-24T13:58:17Z</time>
</trkpt>
<trkpt lat="34.828429" lon="135.361842">
 <ele>195.8</ele>
 <time>2020-03-24T13:58:17Z</time>
</trkpt>
<trkpt lat="34.828377" lon="135.361831">
 <ele>194.6</ele>
 <time>2020-03-24T13:58:17Z</time>
</trkpt>
<trkpt lat="34.828309" lon="135.361831">
 <ele>193.1</ele>
 <time>2020-03-24T13:58:17Z</time>
</trkpt>
<trkpt lat="34.828214" lon="135.361853">
 <ele>191.9</ele>
 <time>2020-03-24T13:58:17Z</time>
</trkpt>
<trkpt lat="34.828051" lon="135.361939">
 <ele>188.8</ele>
 <time>2020-03-24T13:58:17Z</time>
</trkpt>
<trkpt lat="34.827897" lon="135.361971">
 <ele>187</ele>
 <time>2020-03-24T13:58:17Z</time>
</trkpt>
<trkpt lat="34.827794" lon="135.361992">
 <ele>185.1</ele>
 <time>2020-03-24T13:58:17Z</time>
</trkpt>
<trkpt lat="34.827656" lon="135.362014">
 <ele>184.3</ele>
 <time>2020-03-24T13:58:18Z</time>
</trkpt>
<trkpt lat="34.827511" lon="135.362067">
 <ele>182.9</ele>
 <time>2020-03-24T13:58:18Z</time>
</trkpt>
<trkpt lat="34.827382" lon="135.362153">
 <ele>180.2</ele>
 <time>2020-03-24T13:58:18Z</time>
</trkpt>
<trkpt lat="34.827236" lon="135.362271">
 <ele>179</ele>
 <time>2020-03-24T13:58:18Z</time>
</trkpt>
<trkpt lat="34.827219" lon="135.362336">
 <ele>177.4</ele>
 <time>2020-03-24T13:58:18Z</time>
</trkpt>
<trkpt lat="34.827210" lon="135.362411">
 <ele>176.7</ele>
 <time>2020-03-24T13:58:18Z</time>
</trkpt>
<trkpt lat="34.827167" lon="135.362582">
 <ele>173.2</ele>
 <time>2020-03-24T13:58:18Z</time>
</trkpt>
<trkpt lat="34.827116" lon="135.362679">
 <ele>170.5</ele>
 <time>2020-03-24T13:58:18Z</time>
</trkpt>
<trkpt lat="34.826978" lon="135.362808">
 <ele>167.4</ele>
 <time>2020-03-24T13:58:18Z</time>
</trkpt>
<trkpt lat="34.826875" lon="135.362894">
 <ele>167.3</ele>
 <time>2020-03-24T13:58:18Z</time>
</trkpt>
<trkpt lat="34.826781" lon="135.362969">
 <ele>169.1</ele>
 <time>2020-03-24T13:58:19Z</time>
</trkpt>
<trkpt lat="34.826661" lon="135.363022">
 <ele>168.4</ele>
 <time>2020-03-24T13:58:19Z</time>
</trkpt>
<trkpt lat="34.826575" lon="135.363033">
 <ele>168.4</ele>
 <time>2020-03-24T13:58:19Z</time>
</trkpt>
<trkpt lat="34.826515" lon="135.363076">
 <ele>170.1</ele>
 <time>2020-03-24T13:58:19Z</time>
</trkpt>
<trkpt lat="34.826438" lon="135.363151">
 <ele>172.4</ele>
 <time>2020-03-24T13:58:19Z</time>
</trkpt>
<trkpt lat="34.826438" lon="135.363215">
 <ele>172.1</ele>
 <time>2020-03-24T13:58:19Z</time>
</trkpt>
<trkpt lat="34.826438" lon="135.363366">
 <ele>172.9</ele>
 <time>2020-03-24T13:58:19Z</time>
</trkpt>
<trkpt lat="34.826429" lon="135.363430">
 <ele>173.2</ele>
 <time>2020-03-24T13:58:19Z</time>
</trkpt>
<trkpt lat="34.826378" lon="135.363494">
 <ele>172.3</ele>
 <time>2020-03-24T13:58:19Z</time>
</trkpt>
<trkpt lat="34.826257" lon="135.363602">
 <ele>171.1</ele>
 <time>2020-03-24T13:58:19Z</time>
</trkpt>
<trkpt lat="34.826180" lon="135.363655">
 <ele>171.6</ele>
 <time>2020-03-24T13:58:20Z</time>
</trkpt>
<trkpt lat="34.826060" lon="135.363741">
 <ele>172.4</ele>
 <time>2020-03-24T13:58:20Z</time>
</trkpt>
<trkpt lat="34.825966" lon="135.363763">
 <ele>170.5</ele>
 <time>2020-03-24T13:58:20Z</time>
</trkpt>
<trkpt lat="34.825854" lon="135.363806">
 <ele>169.6</ele>
 <time>2020-03-24T13:58:20Z</time>
</trkpt>
<trkpt lat="34.825785" lon="135.363848">
 <ele>169.8</ele>
 <time>2020-03-24T13:58:20Z</time>
</trkpt>
<trkpt lat="34.825760" lon="135.363934">
 <ele>168.4</ele>
 <time>2020-03-24T13:58:20Z</time>
</trkpt>
<trkpt lat="34.825760" lon="135.364052">
 <ele>167.8</ele>
 <time>2020-03-24T13:58:20Z</time>
</trkpt>
<trkpt lat="34.825768" lon="135.364138">
 <ele>168.4</ele>
 <time>2020-03-24T13:58:20Z</time>
</trkpt>
<trkpt lat="34.825777" lon="135.364213">
 <ele>168.9</ele>
 <time>2020-03-24T13:58:20Z</time>
</trkpt>
<trkpt lat="34.825794" lon="135.364353">
 <ele>170.5</ele>
 <time>2020-03-24T13:58:21Z</time>
</trkpt>
<trkpt lat="34.825785" lon="135.364428">
 <ele>170.6</ele>
 <time>2020-03-24T13:58:21Z</time>
</trkpt>
<trkpt lat="34.825734" lon="135.364524">
 <ele>171.1</ele>
 <time>2020-03-24T13:58:21Z</time>
</trkpt>
<trkpt lat="34.825639" lon="135.364642">
 <ele>171.6</ele>
 <time>2020-03-24T13:58:21Z</time>
</trkpt>
<trkpt lat="34.825545" lon="135.364771">
 <ele>171.2</ele>
 <time>2020-03-24T13:58:21Z</time>
</trkpt>
<trkpt lat="34.825459" lon="135.364846">
 <ele>168.6</ele>
 <time>2020-03-24T13:58:21Z</time>
</trkpt>
<trkpt lat="34.825330" lon="135.364900">
 <ele>166</ele>
 <time>2020-03-24T13:58:21Z</time>
</trkpt>
<trkpt lat="34.825245" lon="135.364921">
 <ele>163.6</ele>
 <time>2020-03-24T13:58:21Z</time>
</trkpt>
<trkpt lat="34.825167" lon="135.364921">
 <ele>163.2</ele>
 <time>2020-03-24T13:58:21Z</time>
</trkpt>
<trkpt lat="34.825056" lon="135.364943">
 <ele>161.8</ele>
 <time>2020-03-24T13:58:21Z</time>
</trkpt>
<trkpt lat="34.824970" lon="135.364986">
 <ele>159.5</ele>
 <time>2020-03-24T13:58:22Z</time>
</trkpt>
<trkpt lat="34.824893" lon="135.365061">
 <ele>157.8</ele>
 <time>2020-03-24T13:58:22Z</time>
</trkpt>
<trkpt lat="34.824755" lon="135.365125">
 <ele>155.1</ele>
 <time>2020-03-24T13:58:22Z</time>
</trkpt>
<trkpt lat="34.824644" lon="135.365200">
 <ele>152.7</ele>
 <time>2020-03-24T13:58:22Z</time>
</trkpt>
<trkpt lat="34.824567" lon="135.365222">
 <ele>152.8</ele>
 <time>2020-03-24T13:58:22Z</time>
</trkpt>
<trkpt lat="34.824472" lon="135.365275">
 <ele>152.2</ele>
 <time>2020-03-24T13:58:22Z</time>
</trkpt>
<trkpt lat="34.824403" lon="135.365350">
 <ele>150.5</ele>
 <time>2020-03-24T13:58:22Z</time>
</trkpt>
<trkpt lat="34.824403" lon="135.365436">
 <ele>149.4</ele>
 <time>2020-03-24T13:58:22Z</time>
</trkpt>
<trkpt lat="34.824361" lon="135.365511">
 <ele>148.1</ele>
 <time>2020-03-24T13:58:22Z</time>
</trkpt>
<trkpt lat="34.824300" lon="135.365844">
 <ele>146.2</ele>
 <time>2020-03-24T13:58:22Z</time>
</trkpt>
<trkpt lat="34.824300" lon="135.365919">
 <ele>146.6</ele>
 <time>2020-03-24T13:58:23Z</time>
</trkpt>
<trkpt lat="34.824283" lon="135.365994">
 <ele>146.4</ele>
 <time>2020-03-24T13:58:23Z</time>
</trkpt>
<trkpt lat="34.824197" lon="135.366091">
 <ele>145.2</ele>
 <time>2020-03-24T13:58:23Z</time>
</trkpt>
<trkpt lat="34.824060" lon="135.366273">
 <ele>143.1</ele>
 <time>2020-03-24T13:58:23Z</time>
</trkpt>
<trkpt lat="34.823991" lon="135.366295">
 <ele>141.5</ele>
 <time>2020-03-24T13:58:23Z</time>
</trkpt>
<trkpt lat="34.823880" lon="135.366348">
 <ele>139.8</ele>
 <time>2020-03-24T13:58:23Z</time>
</trkpt>
<trkpt lat="34.823803" lon="135.366370">
 <ele>137.6</ele>
 <time>2020-03-24T13:58:23Z</time>
</trkpt>
<trkpt lat="34.823725" lon="135.366423">
 <ele>136.7</ele>
 <time>2020-03-24T13:58:23Z</time>
</trkpt>
<trkpt lat="34.823614" lon="135.366423">
 <ele>134.3</ele>
 <time>2020-03-24T13:58:23Z</time>
</trkpt>
<trkpt lat="34.823502" lon="135.366413">
 <ele>132.9</ele>
 <time>2020-03-24T13:58:23Z</time>
</trkpt>
<trkpt lat="34.823425" lon="135.366434">
 <ele>131.4</ele>
 <time>2020-03-24T13:58:24Z</time>
</trkpt>
<trkpt lat="34.823365" lon="135.366434">
 <ele>130</ele>
 <time>2020-03-24T13:58:24Z</time>
</trkpt>
<trkpt lat="34.823331" lon="135.366413">
 <ele>129.2</ele>
 <time>2020-03-24T13:58:24Z</time>
</trkpt>
<trkpt lat="34.823219" lon="135.366402">
 <ele>126.7</ele>
 <time>2020-03-24T13:58:24Z</time>
</trkpt>
<trkpt lat="34.823142" lon="135.366456">
 <ele>126.8</ele>
 <time>2020-03-24T13:58:24Z</time>
</trkpt>
<trkpt lat="34.823065" lon="135.366413">
 <ele>123.1</ele>
 <time>2020-03-24T13:58:24Z</time>
</trkpt>
<trkpt lat="34.822996" lon="135.366305">
 <ele>119.3</ele>
 <time>2020-03-24T13:58:24Z</time>
</trkpt>
<trkpt lat="34.822927" lon="135.366262">
 <ele>117.2</ele>
 <time>2020-03-24T13:58:24Z</time>
</trkpt>
<trkpt lat="34.822824" lon="135.366284">
 <ele>115.1</ele>
 <time>2020-03-24T13:58:24Z</time>
</trkpt>
<trkpt lat="34.822738" lon="135.366316">
 <ele>109.7</ele>
 <time>2020-03-24T13:58:25Z</time>
</trkpt>
<trkpt lat="34.822618" lon="135.366380">
 <ele>106.3</ele>
 <time>2020-03-24T13:58:25Z</time>
</trkpt>
<trkpt lat="34.822515" lon="135.366509">
 <ele>106.5</ele>
 <time>2020-03-24T13:58:25Z</time>
</trkpt>
<trkpt lat="34.822395" lon="135.366799">
 <ele>106.8</ele>
 <time>2020-03-24T13:58:25Z</time>
</trkpt>
<trkpt lat="34.822309" lon="135.367035">
 <ele>106.2</ele>
 <time>2020-03-24T13:58:25Z</time>
</trkpt>
<trkpt lat="34.822180" lon="135.367110">
 <ele>104.2</ele>
 <time>2020-03-24T13:58:25Z</time>
</trkpt>
<trkpt lat="34.822035" lon="135.367110">
 <ele>102.1</ele>
 <time>2020-03-24T13:58:25Z</time>
</trkpt>
<trkpt lat="34.821786" lon="135.367099">
 <ele>97.6</ele>
 <time>2020-03-24T13:58:25Z</time>
</trkpt>
<trkpt lat="34.821640" lon="135.367003">
 <ele>95.2</ele>
 <time>2020-03-24T13:58:25Z</time>
</trkpt>
<trkpt lat="34.821511" lon="135.366863">
 <ele>91.9</ele>
 <time>2020-03-24T13:58:25Z</time>
</trkpt>
<trkpt lat="34.821374" lon="135.366767">
 <ele>89.7</ele>
 <time>2020-03-24T13:58:26Z</time>
</trkpt>
<trkpt lat="34.821305" lon="135.366767">
 <ele>88</ele>
 <time>2020-03-24T13:58:26Z</time>
</trkpt>
<trkpt lat="34.821211" lon="135.366788">
 <ele>86.4</ele>
 <time>2020-03-24T13:58:26Z</time>
</trkpt>
<trkpt lat="34.821090" lon="135.366767">
 <ele>84.4</ele>
 <time>2020-03-24T13:58:26Z</time>
</trkpt>
<trkpt lat="34.821039" lon="135.366649">
 <ele>83.9</ele>
 <time>2020-03-24T13:58:26Z</time>
</trkpt>
<trkpt lat="34.821047" lon="135.366509">
 <ele>82.8</ele>
 <time>2020-03-24T13:58:26Z</time>
</trkpt>
<trkpt lat="34.821116" lon="135.366338">
 <ele>81.6</ele>
 <time>2020-03-24T13:58:26Z</time>
</trkpt>
<trkpt lat="34.821047" lon="135.366241">
 <ele>78.6</ele>
 <time>2020-03-24T13:58:26Z</time>
</trkpt>
<trkpt lat="34.820944" lon="135.366220">
 <ele>76.2</ele>
 <time>2020-03-24T13:58:26Z</time>
</trkpt>
<trkpt lat="34.820850" lon="135.366241">
 <ele>75.4</ele>
 <time>2020-03-24T13:58:26Z</time>
</trkpt>
<trkpt lat="34.820781" lon="135.366241">
 <ele>74.2</ele>
 <time>2020-03-24T13:58:27Z</time>
</trkpt>
<trkpt lat="34.820687" lon="135.366220">
 <ele>72.5</ele>
 <time>2020-03-24T13:58:27Z</time>
</trkpt>
<trkpt lat="34.820610" lon="135.366252">
 <ele>72.1</ele>
 <time>2020-03-24T13:58:27Z</time>
</trkpt>
<trkpt lat="34.820524" lon="135.366273">
 <ele>70.8</ele>
 <time>2020-03-24T13:58:27Z</time>
</trkpt>
<trkpt lat="34.820430" lon="135.366305">
 <ele>69.8</ele>
 <time>2020-03-24T13:58:27Z</time>
</trkpt>
<trkpt lat="34.820292" lon="135.366338">
 <ele>67.3</ele>
 <time>2020-03-24T13:58:27Z</time>
</trkpt>
<trkpt lat="34.820155" lon="135.366380">
 <ele>65.4</ele>
 <time>2020-03-24T13:58:27Z</time>
</trkpt>
<trkpt lat="34.819940" lon="135.366466">
 <ele>63.8</ele>
 <time>2020-03-24T13:58:27Z</time>
</trkpt>
<trkpt lat="34.819940" lon="135.366681">
 <ele>63.2</ele>
 <time>2020-03-24T13:58:27Z</time>
</trkpt>
<trkpt lat="34.819966" lon="135.366906">
 <ele>63.7</ele>
 <time>2020-03-24T13:58:27Z</time>
</trkpt>
<trkpt lat="34.819949" lon="135.367099">
 <ele>63.2</ele>
 <time>2020-03-24T13:58:28Z</time>
</trkpt>
<trkpt lat="34.819923" lon="135.367346">
 <ele>62.3</ele>
 <time>2020-03-24T13:58:28Z</time>
</trkpt>
<trkpt lat="34.819966" lon="135.367571">
 <ele>62.1</ele>
 <time>2020-03-24T13:58:28Z</time>
</trkpt>
<trkpt lat="34.820035" lon="135.367872">
 <ele>62.8</ele>
 <time>2020-03-24T13:58:28Z</time>
</trkpt>
<trkpt lat="34.820095" lon="135.368194">
 <ele>63.1</ele>
 <time>2020-03-24T13:58:28Z</time>
</trkpt>
<trkpt lat="34.820215" lon="135.368526">
 <ele>63.6</ele>
 <time>2020-03-24T13:58:28Z</time>
</trkpt>
<trkpt lat="34.820249" lon="135.368784">
 <ele>63.6</ele>
 <time>2020-03-24T13:58:28Z</time>
</trkpt>
<trkpt lat="34.820112" lon="135.368784">
 <ele>63.1</ele>
 <time>2020-03-24T13:58:28Z</time>
</trkpt>
<trkpt lat="34.819794" lon="135.368827">
 <ele>62.2</ele>
 <time>2020-03-24T13:58:28Z</time>
</trkpt>
<trkpt lat="34.819623" lon="135.368870">
 <ele>61.9</ele>
 <time>2020-03-24T13:58:29Z</time>
</trkpt>
<trkpt lat="34.819477" lon="135.368880">
 <ele>62</ele>
 <time>2020-03-24T13:58:29Z</time>
</trkpt>
</trkseg>
</trk>
</gpx>

